CW2654 Weather Reports


Display with metric or nautical units.
time (UTC)temp
F
wind
direction
speed
MPH
gust
MPH
rain 1hr
in
rain 24hr
in
rain mn
in
humidity
%
barometer
mb
20260904221604 53 0 0.0 2.0 0.42 0.57 0.49 96 1014.2
20260904214607 55 136 7.0 16.0 0.24 0.41 0.31 93 1014.9
20260904213104 58 0 0.0 3.0 0.00 0.17 0.07 94 1013.9
20260904211603 59 0 0.0 4.0 0.00 0.17 0.07 91 1013.4
20260904210104 59 336 0.0 2.0 0.00 0.17 0.07 88 1013.3
20260904204608 60 336 1.0 5.0 0.00 0.17 0.07 84 1013.1
20260904203105 60 328 1.0 5.0 0.00 0.17 0.07 86 1013.0
20260904201636 62 288 2.0 9.0 0.00 0.17 0.07 85 1013.1
20260904200121 60 352 3.0 8.0 0.00 0.17 0.07 85 1013.2
20260904194613 59 346 2.0 4.0 0.00 0.22 0.07 89 1013.5
20260904193111 58 345 2.0 5.0 0.00 0.22 0.07 93 1013.4
20260904191603 57 351 2.0 5.0 0.00 0.22 0.07 93 1013.5
20260904190108 57 340 2.0 4.0 0.00 0.22 0.07 92 1013.4
20260904184605 57 333 1.0 4.0 0.00 0.22 0.07 98 1013.3
20260904183104 55 340 0.0 4.0 0.00 0.22 0.07 98 1013.3
20260904181600 55 348 3.0 6.0 0.00 0.22 0.07 99 1013.2
20260904180104 55 343 2.0 4.0 0.01 0.22 0.07 99 1013.1
20260904174602 54 360 1.0 4.0 0.01 0.22 0.07 100 1013.1
20260904173130 54 0 0.0 1.0 0.01 0.22 0.07 100 1013.1
20260904171611 54 0 0.0 2.0 0.00 0.21 0.06 99 1013.0
20260904164600 52 0 0.0 0.0 0.00 0.23 0.06 99 1013.2
20260904163104 52 0 0.0 0.0 0.00 0.23 0.06 99 1013.0
20260904161605 51 0 0.0 0.0 0.00 0.23 0.06 99 1012.8
20260904154606 51 0 0.0 0.0 0.00 0.25 0.06 100 1012.9
20260904153103 50 0 0.0 0.0 0.00 0.25 0.06 99 1012.9
20260904151615 50 0 0.0 0.0 0.01 0.25 0.06 99 1012.7
20260904150130 50 0 0.0 0.0 0.01 0.25 0.06 99 1012.4
20260904144605 49 0 0.0 0.0 0.01 0.25 0.06 99 1012.3
20260904143113 49 0 0.0 0.0 0.01 0.25 0.06 99 1012.3
20260904141617 49 0 0.0 0.0 0.00 0.24 0.05 99 1012.2
20260904140107 49 0 0.0 0.0 0.00 0.24 0.05 99 1012.1
20260904134625 48 0 0.0 0.0 0.00 0.24 0.05 99 1012.0
20260904133105 48 0 0.0 0.0 0.01 0.24 0.05 99 1011.7
20260904131559 48 0 0.0 0.0 0.02 0.24 0.05 99 1011.5
20260904130058 48 0 0.0 0.0 0.03 0.24 0.05 99 1011.4
20260904124557 48 0 0.0 0.0 0.03 0.24 0.05 99 1011.2
20260904123107 48 0 0.0 0.0 0.03 0.23 0.04 99 1011.2
20260904121602 48 0 0.0 0.0 0.02 0.22 0.03 99 1011.3
20260904120108 48 0 0.0 0.0 0.01 0.21 0.02 99 1011.2
20260904114601 48 0 0.0 0.0 0.02 0.21 0.02 99 1011.1
20260904113102 47 0 0.0 0.0 0.01 0.20 0.01 99 1011.0
20260904111607 47 0 0.0 0.0 0.01 0.20 0.01 99 1010.9
20260904110107 47 0 0.0 0.0 0.01 0.20 0.01 99 1011.0
20260904104600 47 0 0.0 0.0 0.00 0.19 0.00 99 1010.9
20260904103113 47 0 0.0 0.0 0.00 0.19 0.00 99 1010.9
20260904101603 47 0 0.0 0.0 0.00 0.19 0.00 99 1010.8
20260904100104 47 0 0.0 0.0 0.00 0.19 0.00 99 1010.7
20260904094605 47 0 0.0 0.0 0.00 0.20 0.00 99 1010.8
20260904093111 47 0 0.0 0.0 0.00 0.20 0.00 99 1010.7
20260904091601 47 0 0.0 0.0 0.00 0.20 0.00 98 1010.6
20260904090100 48 0 0.0 0.0 0.00 0.20 0.00 98 1010.4
20260904084604 48 0 0.0 0.0 0.00 0.21 0.00 98 1010.6
20260904083105 48 0 0.0 0.0 0.00 0.21 0.00 98 1010.6
20260904081601 49 0 0.0 0.0 0.00 0.21 0.00 98 1010.5
20260904080059 49 0 0.0 0.0 0.00 0.21 0.00 99 1010.5
20260904074606 50 0 0.0 0.0 0.00 0.25 0.00 99 1010.5
20260904073103 50 0 0.0 0.0 0.01 0.25 0.00 99 1010.5
20260904071602 50 0 0.0 0.0 0.01 0.25 0.00 99 1010.5
20260904070106 50 0 0.0 0.0 0.01 0.25 0.00 99 1010.5
20260904064606 50 0 0.0 0.0 0.01 0.26 0.25 99 1010.6
20260904063121 50 0 0.0 0.0 0.00 0.25 0.24 99 1010.7
20260904061600 50 0 0.0 1.0 0.00 0.25 0.24 99 1010.7
20260904060104 50 0 0.0 1.0 0.00 0.25 0.24 99 1010.6
20260904054558 50 0 0.0 0.0 0.00 0.25 0.24 99 1010.7
20260904053104 50 0 0.0 1.0 0.00 0.25 0.24 98 1010.6
20260904051608 50 0 0.0 0.0 0.00 0.25 0.24 98 1010.6
20260904050100 50 0 0.0 0.0 0.00 0.25 0.24 98 1010.6
20260904044608 51 0 0.0 0.0 0.00 0.26 0.24 98 1010.5
20260904043103 51 0 0.0 1.0 0.00 0.26 0.24 98 1010.6
20260904041608 51 0 0.0 0.0 0.00 0.26 0.24 98 1010.7
20260904040110 51 0 0.0 2.0 0.00 0.26 0.24 98 1010.7
20260904034603 52 0 0.0 0.0 0.00 0.29 0.24 97 1010.6
20260904033102 52 0 0.0 0.0 0.00 0.29 0.24 97 1010.3
20260904031612 53 0 0.0 3.0 0.00 0.29 0.24 97 1010.1
20260904030101 53 0 0.0 2.0 0.00 0.29 0.24 97 1010.2
20260904024606 54 0 0.0 0.0 0.00 0.29 0.24 97 1010.0
20260904023104 55 0 0.0 0.0 0.00 0.29 0.24 97 1009.9
20260904021608 55 0 0.0 0.0 0.00 0.29 0.24 97 1010.0
20260904020105 55 0 0.0 0.0 0.00 0.29 0.24 97 1010.1
20260904014624 55 0 0.0 0.0 0.00 0.33 0.24 98 1010.1
20260904013101 55 0 0.0 1.0 0.00 0.33 0.24 97 1010.2
20260904011603 55 228 0.0 1.0 0.01 0.33 0.24 97 1010.2
20260904010101 55 0 0.0 0.0 0.01 0.33 0.24 97 1010.2
20260904004557 55 0 0.0 0.0 0.06 0.58 0.24 97 1010.4
20260904003104 55 0 0.0 0.0 0.07 0.58 0.24 96 1010.4
20260904001602 55 0 0.0 2.0 0.06 0.58 0.23 96 1010.4
20260904000120 55 229 1.0 9.0 0.06 0.58 0.23 94 1010.4
20260903234558 57 262 4.0 15.0 0.00 0.52 0.17 92 1010.7
20260903233105 57 360 1.0 3.0 0.00 0.52 0.17 90 1010.1
20260903231600 58 360 0.0 3.0 0.00 0.52 0.17 93 1010.0
20260903230105 57 9 1.0 4.0 0.00 0.52 0.17 92 1010.2
20260903224627 57 0 0.0 2.0 0.01 0.55 0.17 91 1010.3
20260903223104 56 0 0.0 2.0 0.02 0.55 0.17 95 1010.5